User: anonymous   Login
Location: Arrakis Observatory
(44.1122°N, 95.7153°W)
Time: 13:47:25
(UTC-06:00)
Language:

Coronas F rocket - Orbit

View from above orbital plane
View from above orbital plane
View from above satellite
View from above satellite

Ground track
Ground track

The orbit data is extracted from the following two-line orbital elements,

1 26874U 01032B   17020.90565527 +.00050360 -20335-6 +11483-3 0  9996
2 26874 082.4526 040.8931 0006581 092.8389 267.3640 15.97237123870193
Epoch (UTC): 20 January 2017 21:44:08
Eccentricity: 0.0006581
inclination: 82.4526°
perigee height: 278 km
apogee height: 286 km
right ascension of ascending node: 40.8931°
argument of perigee: 92.8389°
revolutions per day: 15.97237123
mean anomaly at epoch: 267.3640°
orbit number at epoch: 87019

The dashed part of the orbit path shows where the satellite is in the earth's shadow,  

DLR